Location: Sawmill Trailhead
(33.5800°N, 116.4497°W)
Time: 21:33:33
(UTC-07:00)

Uosat F - Visible Passes

Search period start: 20 April 2014 00:00
Search period end: 30 April 2014 00:00
Orbit: 751 x 763 km, 98.7° (Epoch: 19 April)

Date Brightness Start Highest point End Pass type
(mag) Time Alt. Az. Time Alt. Az. Time Alt. Az.
20 Apr 11.3 04:41:35 10° NNE 04:46:34 68° ESE 04:51:31 10° S visible
21 Apr 13.0 04:03:15 10° NE 04:07:24 26° E 04:11:31 10° SSE visible
21 Apr 12.0 05:41:51 10° NNW 05:46:06 29° WNW 05:50:20 10° SW visible
22 Apr 11.0 05:02:15 10° N 05:07:14 73° WNW 05:12:12 10° SSW visible
23 Apr 12.2 04:23:26 10° NNE 04:28:10 43° E 04:32:53 10° S visible
24 Apr 13.6 03:45:46 10° NE 03:48:54 17° E 03:52:01 10° SE visible
24 Apr 11.5 05:23:07 10° N 05:27:51 44° WNW 05:32:34 10° SW visible
25 Apr 11.3 04:43:53 10° NNE 04:48:53 71° ESE 04:53:52 10° S visible
26 Apr 12.9 04:05:30 10° NE 04:09:43 27° E 04:13:55 10° SSE visible
27 Apr 11.0 05:04:34 10° N 05:09:33 70° WNW 05:14:30 10° SSW visible
28 Apr 12.1 04:25:42 10° NNE 04:30:29 44° E 04:35:14 10° S visible
29 Apr 13.6 03:47:58 10° NE 03:51:13 17° E 03:54:28 10° SE visible
29 Apr 11.5 05:25:26 10° N 05:30:08 42° WNW 05:34:50 10° SW visible
